STARLINK-32592, 62035

Orbit data source: Space-Track

STARLINK-32592, 62035 is a payload satellite owned by SpaceX/Seattle (US) in LEO that was launched on Thu, 21 Nov 2024 UTC via an FALCON 9 launch vehicle from the Air Force Eastern Test Range (AFETR). Payload-class satellites include a variety of spacecraft equipped with specific instruments for various scientific and technological missions. These include communications satellites like Starlink; space stations such as the ISS; scientific satellites like the Hubble; Earth observation satellites from companies like Planet Labs, Umbra, and HawkEye 360; GPS; miniature CubeSats for education and research; and military/defense satellites.

Loading next visibility...
Identifier
62035, 2024-216D
Orbit
LEO
Last TLE update
19 hours ago
Origin
Manufacturer
SpaceX/Seattle
Mission
Operational Commercial Communications
Bus & Motor
STARLINK V2M, Unknown motor
Mass
730 kg wet, ~700 kg dry
Launch date (UTC)
2024-11-21 (6 months ago)
Launch vehicle
FALCON 9
Launch site
Air Force Eastern Test Range (AFETR)
Object type
Payload
Rocket body
Debris
Shape & HBR
Box + 2 Pan, 29 m
Radar Cross Section
36.964 m², Large (>1 m²)

Expand to show TLE details & history

TLE from 19 hours ago
0 STARLINK-32592
1 62035U 24216D   25128.48494238  .00000290  00000-0  20041-4 0  9993
2 62035  43.0007 187.3039 0000916 249.6606 110.4148 15.27575782 27122
Epoch: 2025-05-08T11:38Z
Definitive object data (Epoch: 2025-05-08T11:38:19.021Z)
Latitude
0.00003°
Longitude
146.16991°
Altitude
483.056 km
Speed
7.626 km/s
True Right ascension
12h 29m 12s
True Declination
0° 00' 00"
Sunlit
Object was in full shadow at TLE epoch
Visualization TLE readout
Latitude
-10.41403°
Longitude
130.44961°
Altitude
484.769 km
Speed
7.624 km/s
Apparent Right ascension
08h 20m 35s
Apparent Declination
-47° 09' 43"
Sunlit
Object is in full shadow
Visualization observer readout
Local Sidereal Time
14:33:01
Azimuth
231.567° WSW
Elevation
-29.921°
Doppler factor
1
Orbital elements
Apogee altitude
485.635 km
Perigee altitude
484.378 km
Semi-major axis
6,863.144 km
Eccentricity
0.0000916
Inclination
43.0007°
RAAN
187.3039°
Arg. of periapsis
249.6606°
True anomaly
110.42464°
Mean anomaly
110.4148°
Eccentric anomaly
110.41972°
Mean motion
3.81732 °/min
BSTAR
0.000020041
Orbital period
94.31 mins
Loading maneuver chart data...
Loading SW <> Apogee altitude chart data...
Loading historical data...
Loading historical data...
Loading historical data...
Loading historical data...
Loading historical data...
Loading historical data...
Loading historical data...

STARLINK-32592 Visibility forecast

Observer location: undefined°, undefined°

Span
Click to sort rows by Start time (UTC) header in descending order
Start Az.
Max El. time (UTC)
Max El. Az.
Max El.
End time (UTC)
End Az.
6 mins2025-05-09 06:39:11.778Z202.37° SSW2025-05-09 06:42:11.778Z148.123° SSE22.834°2025-05-09 06:45:11.778Z91.796° ESE
5 mins2025-05-09 08:19:11.778Z255.39° W2025-05-09 08:21:11.778Z51.42° ENE44.131°2025-05-09 08:24:11.778Z71.266° E
5 mins2025-05-09 09:58:11.778Z294.366° NW2025-05-09 10:00:11.778Z6.958° NNE37.914°2025-05-09 10:03:11.778Z75.357° E
5 mins2025-05-09 11:37:11.778Z289.288° WNW2025-05-09 11:39:11.778Z339.152° N44.936°2025-05-09 11:42:11.778Z107.398° ESE
4 mins2025-05-09 13:16:11.778Z252.359° W2025-05-09 13:18:11.778Z206.307° SW21.88°2025-05-09 13:20:11.778Z167.124° S
4 mins2025-05-10 06:13:11.778Z178.329° S2025-05-10 06:14:11.778Z155.127° SSE22.097°2025-05-10 06:17:11.778Z94.837° ESE
|